Location: Charbonni�res
(45.9952°N, 2.9982°E)
Time: 12:35:29
(UTC+00:00)

NOSS 3-4 (C) - Pass Details

Date: 29 November 2020
Orbit: 878 x 1334 km, 63.4° (Epoch: 22 January)

Event Time Altitude Azimuth Distance (km) Brightness Sun altitude
Exits shadow 04:00:59 64° 123° (ESE) 1,000 3.6 -31.7°
Maximum altitude 04:00:59 64° 123° (ESE) 1,000 3.6 -31.7°
Drops below altitude 10° 04:07:08 10° 43° (NE) 2,705 6.3 -30.6°
Sets 04:09:49 0° 41° (NE) 3,716 7.1 -30.2°
